Regional Weather Roundup
Issued by NWS

Home | Current Version | Previous Version | Text Only | Print | Product List | Glossary On
Versions: 1 2 3 4 5 6 7 8 9 10 11 12 13 14 15 16 17 18 19 20 21 22 23 24 25 26 27 28 29 30 31 32 33 34 35 36 37 38 39 40 41 42 43 44 45 46 47 48 49 50
000
ASUS42 KFFC 250403
RWRGA
WEATHER ROUNDUP FOR GEORGIA
NATIONAL WEATHER SERVICE PEACHTREE CITY GA
1200 AM EDT MON MAY 25 2015

NOTE: "FAIR" INDICATES FEW OR NO CLOUDS BELOW 12,000 FEET WITH NO
SIGNIFICANT WEATHER AND/OR OBSTRUCTIONS TO VISIBILITY.

* = USE WITH CAUTION. THE STATIONS MARKED WITH AN ASTERISK MAY NOT
REPORT WEATHER SUCH AS PRECIPITATION, FOG, OR THUNDER AND ARE NOT
QUALITY CONTROLLED BY NWS.

THE REMARK "TC" DENOTES TEMPERATURE READING IN DEGREES CELSIUS.

GAZ001>058-250500-
NORTH GEORGIA

CITY           SKY/WX    TMP DP  RH WIND       PRES   REMARKS
ATLANTA        MOCLDY    73  57  57 SE10G16   30.25R
ATHENS         CLEAR     69  56  62 VRB3      30.28S
CHAMBLEE       CLEAR     71  57  61 E5        30.26S
PEACHTREE CITY CLEAR     65  60  84 SE3       30.25R
ROME           PTCLDY    74  58  57 E3        30.22S
WEST ATLANTA   CLEAR     74  57  55 E7        30.24S
GAINESVILLE    CLEAR     69  55  60 E5        30.31S
CARTERSVILLE   CLEAR     72  57  59 E5        30.24R


CITY           SKY/WX    TMP DP  RH WIND       PRES   REMARKS
DALTON*        MOCLDY    70  59  68 SE5       30.23S
BLAIRSVILLE*     N/A     65  32  29 E3        30.31F
$$

GAZ059>098-102>109-250500-
CENTRAL GEORGIA

CITY           SKY/WX    TMP DP  RH WIND       PRES   REMARKS
AUGUSTA-BUSH   CLEAR     67  60  78 SE5       30.29S
AUGUSTA-DANIEL CLEAR     71  60  68 SE5       30.31R
COLUMBUS       CLEAR     75  57  53 SE9       30.21R
MACON          CLEAR     71  59  65 SE8       30.25S


CITY           SKY/WX    TMP DP  RH WIND       PRES   REMARKS
LAGRANGE*      CLEAR     75  64  69 SE3       30.22S
SYLVANIA*      PTCLDY    69  65  85 E3        30.30S
MILLEDGEVILLE* CLEAR     72  63  73 CALM      30.27S
$$

GAZ099>101-110>166-250500-
SOUTH GEORGIA

CITY           SKY/WX    TMP DP  RH WIND       PRES   REMARKS
SAVANNAH       PTCLDY    72  63  73 E7        30.28S
VALDOSTA       CLEAR     73  66  78 E6        30.24R
ALMA           CLOUDY    71  66  84 E5        30.26R
ALBANY         CLEAR     76  60  57 E8        30.24R
BRUNSWICK        N/A     77  68  73 E14       30.26S


CITY           SKY/WX    TMP DP  RH WIND       PRES   REMARKS
BAINBRIDGE*    CLEAR     79  64  61 E9        30.20S
MOULTRIE*      CLEAR     73  64  73 E6        30.24S
VIDALIA*       CLEAR     70  64  83 E7        30.27S
WAYCROSS*      PTCLDY    72  70  92 E5        30.25S
DOUGLAS*       CLEAR     73  66  78 E7        30.27S
$$



USA.gov is the U.S. government's official web portal to all federal, state and local government web resources and services.